Hourly Data Report for December 11, 2018

TORONTO CITY
ONTARIO
Current Station Operator: ECCC - MSC

43°40'00.000" N
79°24'00.000" W
112.50 m
6158355
71508
XTO

Download Data

Hourly Data (December 2018)
Hourly Data Report for December 11, 2018
TIME
LST
Temp Definition
°C
Dew Point Definition
°C
Rel Hum Definition
%
Precip. Amount Definition
mm

Wind Dir Definition
10's deg

Wind Spd Definition
km/h
Visibility Definition
km
Stn Press Definition
kPa
Hmdx Definition


Wind Chill Definition


Weather Definition


00:00 0.6 -5.4 64 0.0 LegendMM LegendMM   100.50     LegendNANA
01:00 0.1 -5.3 67 0.0 LegendMM LegendMM   100.45     LegendNANA
02:00 -0.5 -5.5 69 0.0 LegendMM LegendMM   100.46     LegendNANA
03:00 -1.4 -6.0 71 0.0 LegendMM LegendMM   100.51     LegendNANA
04:00 -2.1 -6.4 72 0.0 LegendMM LegendMM   100.42     LegendNANA
05:00 -1.8 -6.2 72 0.0 LegendMM LegendMM   100.36     LegendNANA
06:00 -1.6 -5.4 75 0.0 LegendMM LegendMM   100.33     LegendNANA
07:00 -1.2 -5.1 75 0.0 LegendMM LegendMM   100.30     LegendNANA
08:00 -1.1 -5.4 73 0.0 LegendMM LegendMM   100.27     LegendNANA
09:00 -0.8 -5.5 70 0.0 LegendMM LegendMM   100.26     LegendNANA
10:00 -0.8 -5.3 72 0.0 LegendMM LegendMM   100.26     LegendNANA
11:00 -1.0 -4.9 75 0.0 LegendMM LegendMM   100.17     LegendNANA
12:00 -0.8 -4.7 75 0.0 LegendMM LegendMM   100.12     LegendNANA
13:00 -0.6 -4.3 76 0.0 LegendMM LegendMM   100.03     LegendNANA
14:00 -0.6 -3.9 78 0.0 LegendMM LegendMM   99.98     LegendNANA
15:00 -0.4 -3.7 79 0.0 LegendMM LegendMM   99.98     LegendNANA
16:00 -0.4 -3.8 78 0.0 LegendMM LegendMM   100.01     LegendNANA
17:00 -0.3 -3.4 79 0.0 LegendMM LegendMM   100.02     LegendNANA
18:00 -0.3 -3.0 82 0.0 LegendMM LegendMM   100.06     LegendNANA
19:00 -0.1 -3.2 80 0.0 LegendMM LegendMM   100.09     LegendNANA
20:00 0.0 -3.1 79 0.0 LegendMM LegendMM   100.15     LegendNANA
21:00 0.3 -2.8 80 0.0 LegendMM LegendMM   100.18     LegendNANA
22:00 0.5 -2.6 79 0.0 LegendMM LegendMM   100.18     LegendNANA
23:00 0.9 -2.5 78 0.0 LegendMM LegendMM   100.21     LegendNANA

Notes on Data Quality.

Legend

  • E = Estimated
  • M = Missing
  • NA = Not Available*
  • [empty] = Indicates an unobserved value
Date modified: